sat.trackr.live / text

‹ back to catalog

STARLINK-34034

NORAD 63947 · 2025-098X

PAYLOAD ACTIVE UNKNOWN

§ Identity

Operator
Country
US
Launch date
2025-05-13
Launch site
AFWTR
Launch vehicle
Mass (kg)
RCS (m²)

Purposes: comms

External: N2YO · Heavens-Above · Gunter

§ Orbital elements

Epoch: 2026-05-25T03:41:37.296960Z

Period
96.11 min
Inclination
70.0010°
Eccentricity
0.0002591
Mean motion
14.98347375 rev/d
Perigee alt
570.2 km
Apogee alt
573.8 km
Semi-major
6,950.1 km
B*
5.3550e-4
RAAN
81.7613°
Arg perigee
268.4234°
Mean anomaly
91.6628°
Rev number
5,800

§ Raw data

STARLINK-340341 63947U 25098X   26145.15390390  .00006305  00000+0  53550-3 0  99952 63947  70.0010  81.7613 0002591 268.4234  91.6628 14.98347375 58007

JSON: /api/v1/satellites/63947 · /tle

For live sub-satellite position, see the globe view (requires WebGL).

§ Visibility from observer

Set your observer location to see the next 7 days of passes ≥ 10°. The values pass through the URL so the page stays shareable.

No JS? Fill the form by hand. The geolocation button needs JavaScript.